Lexington Weather

Lexington, Massachusetts, USA

67°F
9/23/2021 4:14am 
  • Lexington Conditions: Overcast
  • Temperature: 66.7°F / 19.3°CWarmer 0.5°F than last hour.
  • Dew Point: 65.5°FIncreased 0.6°Fsince last hour.
  • Relative Humidity: 96
  • Wind: Calm, 10-min avg: Calm, gust: 2 mph
  • Barometer: 30.03 in Steady
  • Visibility: 10 miles
  • Rain Today: 0.00 in
  •   

Regional Weather Roundup
for Boston / Norton, MA

        
000
ASUS41 KBOX 201904
RWRBOX

REGIONAL WEATHER ROUNDUP
NATIONAL WEATHER SERVICE BOSTON/NORTON MA
300 PM EDT MON SEP 20 2021

NOTE:  "FAIR" INDICATES FEW OR NO CLOUDS BELOW 12,000 FEET WITH NO 
SIGNIFICANT WEATHER AND/OR OBSTRUCTIONS TO VISIBILITY.

MAZALL-202000-
EASTERN MASSACHUSETTS
  
CITY           SKY/WX    TMP DP  RH WIND       PRES   REMARKS
BOSTON         MOSUNNY   71  53  52 E12       30.38S                  
BEVERLY        SUNNY     70  56  61 SE10      30.38S                  
LAWRENCE       MOSUNNY   73  55  53 SE7       30.39S                  
BEDFORD        MOSUNNY   74  52  46 SE6       30.36S                  
BLUE HILL      NOT AVBL                                               
NORWOOD        PTSUNNY   74  57  55 NE10      30.36F                  
MARSHFIELD     SUNNY     70  50  49 VRB7G13   30.39S                  
PLYMOUTH       SUNNY     70  51  51 NE10      30.38S                  
TAUNTON        SUNNY     74  52  46 SE5       30.37S                  
NEW BEDFORD    SUNNY     74  51  44 E9        30.36S                  
$$

MAZALL-202000-
CAPE COD AND THE ISLANDS
  
CITY           SKY/WX    TMP DP  RH WIND       PRES   REMARKS
FALMOUTH       SUNNY     70  52  52 NE12      30.38S                  
HYANNIS        SUNNY     72  51  47 NE8       30.37R                  
CHATHAM        SUNNY     68  56  65 E10       30.40R                  
PROVINCETOWN   SUNNY     69  56  62 E9        30.40S                  
NANTUCKET      MOSUNNY   70  55  59 NE10      30.38R                  
MARTHAS VNYRD  SUNNY     71  51  49 E8        30.38S                  
$$
 
MAZALL-202000-
CENTRAL AND WESTERN MASSACHUSETTS
  
CITY           SKY/WX    TMP DP  RH WIND       PRES   REMARKS
WORCESTER      MOSUNNY   70  52  52 S3        30.38S                  
FITCHBURG      SUNNY     73  47  39 VRB6      30.37S                  
ORANGE         MOSUNNY   74  51  44 S9        30.36F                  
SPRINGFIELD    MOSUNNY   75  55  48 S6        30.34S                  
WESTFIELD      MOSUNNY   74  56  53 S7        30.34F                  
NORTH ADAMS    SUNNY     77  53  43 SE9       30.32F                  
PITTSFIELD     MOSUNNY   72  54  53 S5        30.33F                  
$$
 
RIZALL-202000-
RHODE ISLAND
  
CITY           SKY/WX    TMP DP  RH WIND       PRES   REMARKS
PROVIDENCE     MOSUNNY   74  53  48 E8        30.37F                  
NEWPORT        SUNNY     70  56  61 SE10      30.37S                  
SMITHFIELD     SUNNY     74  53  48 VRB3      30.38S                  
WESTERLY       SUNNY     69  53  56 SE10      30.37F                  
$$
 
CTZALL-202000-
CONNECTICUT
  
CITY           SKY/WX    TMP DP  RH WIND       PRES   REMARKS
BRADLEY INTL   PTSUNNY   74  56  53 VRB5      30.34F                  
HARTFORD       SUNNY     76  56  49 S6        30.34F                  
BRIDGEPORT     SUNNY     74  59  59 E10       30.35S                  
DANBURY        MOSUNNY   76  56  49 SE9       30.35F                  
GROTON         SUNNY     71  56  58 SE10      30.36F                  
NEW HAVEN      MOSUNNY   76  59  55 SE10      30.36S                  
CHESTER        FAIR      73  54  49 VRB6      30.37S                  
MERIDEN        PTSUNNY   73  56  54 S6        30.35F                  
WILLIMANTIC    MOSUNNY   72  53  51 SE7       30.35F                  
OXFORD         PTSUNNY   73  60  63 S10       30.37S                  
$$

MEZ002-015-021-024-NHZ003-005-008-011-012-014-VTZ005-008-202000-
NORTHERN NEW ENGLAND
  
CITY           SKY/WX    TMP DP  RH WIND       PRES   REMARKS
PORTLAND ME    MOSUNNY   67  51  56 S10       30.39F                  
BANGOR ME      MOSUNNY   70  46  42 W7        30.37F                  
CONCORD NH     SUNNY     72  50  45 S8        30.36F                  
MANCHESTER NH  MOSUNNY   74  49  41 S10       30.35S                  
NASHUA NH      SUNNY     73  53  49 S5        30.37F                  
PORTSMOUTH NH  MOSUNNY   70  50  50 SE7       30.39S                  
JAFFREY NH     MOSUNNY   71  56  58 SE6       30.37F                  
KEENE NH       SUNNY     74  54  49 SW7       30.35S                  
BURLINGTON VT  MOSUNNY   76  53  44 S13       30.29F                  
MT. WASHINGTON MOSUNNY   55  34  44 S6          N/A                   
$$

NYZ052-076-202000-
EASTERN NEW YORK
  
CITY           SKY/WX    TMP DP  RH WIND       PRES   REMARKS
ALBANY         MOSUNNY   72  54  53 S14       30.32F                  
NEW YORK CITY  CLOUDY    75  56  51 S8G20     30.33F                  
$$
 
ANZALL-202000-
MARINE OBSERVATIONS
  
STATION/POSITION TIME  TEMP    WIND        PRES    VSBY  WAVE
                       AIR SEA DIR/SP/G                  HT/PER
                 (UTC) (F)     (DEG/KT/KT) (MB)    (MI)  (FT/S)
BOSTON BUOY      1840      67  100/  6/  8 1029.4R
BUZZARDS BAY     1800           40/  6/  7 1029.6F
NANTUCKET SOUND  1840   67 72   90/ 12/ 16 1028.6S
MASS BAY-STELLWA 1804   66     120/  4/  6 1028.9F  1 7/8  3/11
ISLE OF SHOALS   1800   64     140/  7/  8 1028.6F
S OF BLOCK IS    1826      71                N/A           2/ 8
$$

......................KEY.........................
  SKY/WX - SKY CONDITION/PRESENT WEATHER
  TMP    - TEMPERATURE IN FAHRENHEIT
  DWPT   - DEWPOINT IN FAHRENHEIT
  RH     - RELATIVE HUMIDITY IN PERCENT
  WIND   - DIRECTION AND SPEED IN MPH
  PRES   - MEAN SEA LEVEL PRESSURE IN INCHES OF HG
  WCI    - WIND CHILL INDEX
  VSB    - VISIBILITY IN MILES
  HX     - HEAT INDEX
  TC     - TEMPERATURE IN CELSIUS
  VRB    - VARIABLE WIND DIRECTION
  N/A    - NOT AVAILABLE
  
      

Other recent Regional Weather Roundups

Thu Sep 23, 3:04am

Thu Sep 23, 2:04am

Thu Sep 23, 1:04am

Thu Sep 23, 12:04am

Wed Sep 22, 11:04pm

Wed Sep 22, 10:04pm

Wed Sep 22, 9:04pm

Wed Sep 22, 8:04pm

Wed Sep 22, 7:04pm

Wed Sep 22, 6:04pm

Wed Sep 22, 5:04pm

Wed Sep 22, 4:04pm

Wed Sep 22, 3:04pm

Wed Sep 22, 2:04pm

Wed Sep 22, 1:04pm

Wed Sep 22, 12:05pm

Wed Sep 22, 11:04am

Wed Sep 22, 10:04am

Wed Sep 22, 9:04am

Wed Sep 22, 8:04am

Wed Sep 22, 7:04am

Wed Sep 22, 6:04am

Wed Sep 22, 5:04am

Wed Sep 22, 4:04am

Wed Sep 22, 3:04am

Wed Sep 22, 2:04am

Wed Sep 22, 1:04am

Wed Sep 22, 12:04am

Tue Sep 21, 11:04pm

Tue Sep 21, 10:04pm

Tue Sep 21, 9:04pm

Tue Sep 21, 8:04pm

Tue Sep 21, 7:04pm

Tue Sep 21, 6:04pm

Tue Sep 21, 5:04pm

Tue Sep 21, 4:04pm

Tue Sep 21, 3:04pm

Tue Sep 21, 2:04pm

Tue Sep 21, 1:04pm

Tue Sep 21, 12:04pm

Tue Sep 21, 11:04am

Tue Sep 21, 10:04am

Tue Sep 21, 9:04am

Tue Sep 21, 8:04am

Tue Sep 21, 7:04am

Tue Sep 21, 6:04am

Tue Sep 21, 5:04am

Tue Sep 21, 4:04am

Tue Sep 21, 3:04am

Tue Sep 21, 2:04am

Tue Sep 21, 1:04am

Tue Sep 21, 12:04am

Mon Sep 20, 11:04pm

Mon Sep 20, 10:04pm

Mon Sep 20, 9:04pm

Mon Sep 20, 8:04pm

Mon Sep 20, 7:04pm

Mon Sep 20, 6:04pm

Mon Sep 20, 5:04pm

Mon Sep 20, 4:04pm

Mon Sep 20, 2:04pm

Mon Sep 20, 1:04pm

Mon Sep 20, 12:04pm

Mon Sep 20, 11:04am

Mon Sep 20, 10:04am

Mon Sep 20, 9:04am

Mon Sep 20, 7:04am

Mon Sep 20, 6:04am

Mon Sep 20, 5:04am

Mon Sep 20, 4:04am

Mon Sep 20, 3:04am

Mon Sep 20, 2:04am

Mon Sep 20, 1:04am

Mon Sep 20, 12:04am

Sun Sep 19, 11:04pm

Sun Sep 19, 10:04pm

Sun Sep 19, 9:04pm

Sun Sep 19, 8:04pm

Sun Sep 19, 7:04pm

Sun Sep 19, 6:04pm

Sun Sep 19, 5:04pm

Sun Sep 19, 4:04pm

Sun Sep 19, 3:04pm

Sun Sep 19, 2:05pm

Sun Sep 19, 1:04pm

Sun Sep 19, 12:04pm

Sun Sep 19, 11:04am

Sun Sep 19, 10:05am

Sun Sep 19, 9:04am

Sun Sep 19, 8:04am

Sun Sep 19, 7:04am

Sun Sep 19, 6:04am

Sun Sep 19, 5:04am

Sun Sep 19, 4:04am

Sun Sep 19, 3:04am

Sun Sep 19, 2:04am

Sun Sep 19, 1:04am

Sun Sep 19, 12:04am

Sat Sep 18, 11:05pm

Sat Sep 18, 10:04pm

Sat Sep 18, 9:04pm

Sat Sep 18, 8:04pm

Sat Sep 18, 7:04pm

Sat Sep 18, 6:04pm

Sat Sep 18, 5:04pm

Sat Sep 18, 4:04pm

Sat Sep 18, 3:04pm

Sat Sep 18, 2:04pm

Sat Sep 18, 1:04pm

Sat Sep 18, 12:04pm

Sat Sep 18, 11:04am

Sat Sep 18, 10:04am

Sat Sep 18, 9:04am

Sat Sep 18, 8:04am

Sat Sep 18, 7:04am

Sat Sep 18, 6:04am

Sat Sep 18, 5:04am

Sat Sep 18, 4:04am

Sat Sep 18, 3:04am

Sat Sep 18, 2:04am

Sat Sep 18, 1:04am

Sat Sep 18, 12:04am

Fri Sep 17, 11:04pm

Fri Sep 17, 10:04pm

Fri Sep 17, 9:04pm

Fri Sep 17, 8:04pm

Fri Sep 17, 7:04pm

Fri Sep 17, 6:04pm

Fri Sep 17, 5:04pm

Fri Sep 17, 4:04pm

Fri Sep 17, 3:04pm

Fri Sep 17, 2:04pm

Fri Sep 17, 1:04pm

Fri Sep 17, 12:05pm

Fri Sep 17, 11:04am

Fri Sep 17, 10:04am

Fri Sep 17, 9:04am

Fri Sep 17, 8:04am

Fri Sep 17, 7:04am

Fri Sep 17, 6:04am

Fri Sep 17, 5:04am

Fri Sep 17, 4:04am

Fri Sep 17, 3:04am

Fri Sep 17, 2:04am

Fri Sep 17, 1:04am

Fri Sep 17, 12:04am

Thu Sep 16, 11:04pm

Thu Sep 16, 10:04pm

Thu Sep 16, 9:04pm

Thu Sep 16, 8:04pm

Thu Sep 16, 7:04pm

Thu Sep 16, 6:04pm

Thu Sep 16, 5:04pm

Thu Sep 16, 4:04pm

Thu Sep 16, 3:04pm

Thu Sep 16, 2:04pm

Thu Sep 16, 1:05pm

Thu Sep 16, 12:04pm

Thu Sep 16, 11:05am

Thu Sep 16, 10:05am

Thu Sep 16, 9:04am

Thu Sep 16, 8:04am

Thu Sep 16, 7:04am

Thu Sep 16, 6:04am

Thu Sep 16, 5:04am

Thu Sep 16, 4:04am

Meta data:

ID: 8840323b-2673-455d-a2a8-297132adc917
Link: https://api.weather.gov/products/8840323b-2673-455d-a2a8-297132adc917